Site menu:

About:

weather.olc.net provides weather information from NOAA, the National Weather Service, Weather Underground, and current weather data collected outside of Orangeburg, SC near Great Branch.


Today's Forecast

Tonight

Tonight: Mostly cloudy, with a low around 66. South wind 11 to 13 mph.
Mostly Cloudy



Low: 66 °F

Friday

Friday: Showers and thunderstorms, mainly after 1pm. Some of the storms could be severe.  High near 78. Breezy, with a south wind 14 to 21 mph, with gusts as high as 33 mph.  Chance of precipitation is 100%. New rainfall amounts between 1 and 2 inches possible.
Severe
Thunderstorms
and Breezy

High: 78 °F

Weather Almanac

Columbia Metro Airport

Apr 18th Weather Records
Astronomical Info

Sunrise:
06:49 am

Sunset:
07:57 pm
Civil Twilight    
Dawn:
06:23 am
Dusk:
08:22 pm
Moonset: 05:36 am
Moonrise: 06:16 pm
Full MoonApr 19
Last Qtr.Apr 26
New MoonMay 04
First Qtr.May 11
Current PhaseFull Moon 100%

Regional Weather Roundup
Issued by NWS Columbia, SC


072
ASUS42 KCAE 190210
RWRCAE
REGIONAL WEATHER ROUNDUP
NATIONAL WEATHER SERVICE COLUMBIA SC
1000 PM EDT THU APR 18 2019

NOTE: "FAIR" INDICATES FEW OR NO CLOUDS BELOW 12,000 FEET WITH NO
SIGNIFICANT WEATHER AND/OR OBSTRUCTIONS TO VISIBILITY.

NOT ALL STATIONS ARE QUALITY CONTROLLED BY THE NATIONAL
WEATHER SERVICE. USE DATA WITH CAUTION...ESPECIALLY
DEWPOINT OBSERVATIONS.

SCZ001>056-GAZ040-063>065-077-190300-
...UPSTATE SOUTH CAROLINA...

CITY           SKY/WX    TMP DP  RH WIND       PRES   REMARKS
ANDERSON       FAIR      69  57  65 SE7       29.84F
LIBERTY        FAIR      67  60  76 SE5       29.85S
SPARTANBURG    CLOUDY    70  57  64 SE8       29.86S
CLEMSON        FAIR      68  58  70 SE3       29.85F
GREENVILLE     MOCLDY    72  58  61 SE8       29.87S
GREENWOOD      FAIR      69  60  73 SE8       29.88R
GREER          FAIR      64  57  78 SE7       29.87S
ROCK HILL      FAIR      71  61  70 S9G23     29.90R
CHESTER        FAIR      68  55  64 S8        29.91R
LAURENS        FAIR      70  61  73 S10G18    29.88R


...CENTRAL SOUTH CAROLINA...

CITY           SKY/WX    TMP DP  RH WIND       PRES   REMARKS
COLUMBIA APT   FAIR      71  61  70 SE12      29.90R
COLUMBIA OWENS FAIR      71  62  73 VRB5      29.91S
MCENTIRE ANGB  MOCLDY    70  63  79 SE10      29.92S
ORANGEBURG     FAIR      70  63  78 SE10      29.93R
SUMTER SHAW    FAIR      71  62  72 SE10      29.92F
NEWBERRY       FAIR      70  63  78 SE10      29.91S
AIKEN          FAIR      68  63  83 SE10      29.93R
BARNWELL       MOCLDY    70  64  83 SE9       29.91S
MANNING        FAIR      68  63  83 CALM      29.94F
CAMDEN         MOCLDY    70  61  73 VRB7      29.93R
LANCASTER      CLOUDY    70  63  78 SE10      29.91S
WINNSBORO      FAIR      70  61  73 SE10G17   29.91R


...EASTERN AND COASTAL SOUTH CAROLINA...

CITY           SKY/WX    TMP DP  RH WIND       PRES   REMARKS
MYRTLE BEACH   CLOUDY    70  66  87 S13       29.98R
N MYRTLE BCH   MOCLDY    70  65  84 S8        29.98R
CONWAY         FAIR      68  63  83 CALM      29.97S
MARION         FAIR      68  61  77 S6        29.97R
HARTSVILLE     FAIR      68  63  83 S8        29.93F
FLORENCE       FAIR      70  61  73 S12       29.95R
DARLINGTON     FAIR      70  61  73 S12       29.94S
CHARLESTON APT FAIR      71  66  84 S8        29.94S
MOUNT PLEASANT FAIR      73  70  88 S10G18    29.95S
WALTERBORO     FAIR      68  64  88 CALM      29.95R
BEAUFORT       FAIR      73  69  87 S5        29.94R
HILTON HEAD    FAIR      70  66  88 S6        29.95R


...EASTERN GEORGIA...

CITY           SKY/WX    TMP DP  RH WIND       PRES   REMARKS
AUGUSTA BUSH F FAIR      73  63  70 SE10      29.87R
AUGUSTA DANIEL FAIR      74  61  63 SE12      29.88R
THOMSON        FAIR      73  62  68 SW9G16    29.91S
WASHINGTON     FAIR      66  59  77 SE3       29.84F
CLAXTON        FAIR      74  66  76 E5        29.91S
SYLVANIA       FAIR      72  64  75 S5        29.92R
STATESBORO     FAIR      71  62  73 S9        29.91R
SAVANNAH       MOCLDY    71  66  84 S8        29.93R


...SOUTHERN NORTH CAROLINA...

CITY           SKY/WX    TMP DP  RH WIND       PRES   REMARKS
CHARLOTTE      MOCLDY    72  57  59 S17       29.89S
MONROE         FAIR      70  58  65 S7        29.90S
WADESBORO      FAIR      69  58  68 SE8       29.92R
ROCKINGHAM     FAIR      69  60  73 SE10G18   29.93F
RUTHERFORDTON  MOCLDY    68  55  64 SE7       29.87F
ASHEVILLE      FAIR      66  53  63 SE6       29.89R

$$